sat.trackr.live / text

‹ back to catalog

STARLINK-36168

NORAD 68677 · 2026-077R

PAYLOAD ACTIVE UNKNOWN

§ Identity

Operator
Country
US
Launch date
2026-04-11
Launch site
AFWTR
Launch vehicle
Mass (kg)
RCS (m²)

Purposes: comms

External: N2YO · Heavens-Above · Gunter

§ Orbital elements

Epoch: 2026-09-20T02:31:19.005312Z

Period
93.90 min
Inclination
97.2837°
Eccentricity
0.0002243
Mean motion
15.33469913 rev/d
Perigee alt
463.9 km
Apogee alt
467.0 km
Semi-major
6,843.6 km
B*
5.1868e-4
RAAN
133.0223°
Arg perigee
83.2352°
Mean anomaly
276.9146°
Rev number
2,495

§ Raw data

STARLINK-361681 68677U 26077R   26263.10508108  .00016721  00000+0  51868-3 0  99952 68677  97.2837 133.0223 0002243  83.2352 276.9146 15.33469913 24959

JSON: /api/v1/satellites/68677 · /tle

For live sub-satellite position, see the globe view (requires WebGL).

§ Visibility from observer

Set your observer location to see the next 7 days of passes ≥ 10°. The values pass through the URL so the page stays shareable.

No JS? Fill the form by hand. The geolocation button needs JavaScript.